Content
SEND FEEDBACK

Daily
Averages
Monthly
Summary
United States of America

POTTS JUNCTION, GUAM


Home > North America > United States > Guam
Elevation: 110 meters     Latitude: 13 33N     Longitude: 144 50E

WEATHER
 
SELECT A DAY
Number of Records: 214,928;   Date Range: 1/1/95 - 11/26/14
 
SHARE

PRINT THIS DATA

[ ← Previous Day ]
WEATHER ALMANAC - 1 AUGUST, 2013
[ Next Day → ]
[ °F ]   °C
Weather ElementAverageHighLow
Temperature28.4 °C32.2 °C (3:54 pm)25.6 °C (6:54 am)
Dewpoint23.8 °C24.4 °C (4:54 am)22.8 °C (1:54 pm)
Humidity76.5 %87 % (6:54 am)61 % (3:54 pm)
Barometer1010.8 hPa1012.9 hPa (9:13 am)1007.8 hPa (2:54 pm)
Wind Speed11.1 km/h22.2 km/h (6:32 am)
Wind Gust31.5 km/h (6:32 am)
Weather ElementAverage
Visibility15 km
Wind DirectionESE (100 °)

Weather ElementTotal
Precipitation1.78 mm
Cooling Degree Days10.6 (Base 18.3)
Growing Degree Days18.9 (Base 10)
Averaged from 30 records on 1 August, 2013
WEATHER CONDITIONS BREAKOUT
WIND DIRECTION BREAKOUT
WEATHER BY HOUR - 1 AUGUST, 2013
[ °F ]   °C
Local TimeTemperatureDewpointHumidityBarometerVisibilityWind DirectionWind SpeedGust SpeedPrecipitationEventsConditions
1:54 AM28.3 °C23.3 °C74 %1009.5 hPa16.1 kmEast (80°)7.4 km/hClear
2:54 AM28.9 °C23.9 °C74 %1008.8 hPa16.1 kmEast (80°)9.3 km/hClear
3:54 AM26.7 °C23.3 °C81 %1009.5 hPa9.7 kmCalm0.76 mmRainLight Rain
4:54 AM28.3 °C24.4 °C79 %1009.5 hPa16.1 kmENE (70°)9.3 km/h0 mmClear
5:54 AM27.8 °C24.4 °C82 %1010.2 hPa16.1 kmEast (90°)9.3 km/h0 mmRainLight Rain
6:07 AM28 °C24 °C79 %1011.2 hPa16.1 kmSouth (190°)13 km/hOvercast
6:21 AM27 °C24 °C84 %1011.5 hPa2.9 kmSSE (150°)16.7 km/h27.8 km/hRainHeavy Rain
6:32 AM26 °C23 °C83 %1011.9 hPa4.8 kmSouth (170°)22.2 km/h31.5 km/hRainLight Rain
6:44 AM26 °C23 °C83 %1011.9 hPa16.1 kmSouth (180°)9.3 km/hMostly Cloudy
6:54 AM25.6 °C23.3 °C87 %1011.2 hPa16.1 kmSouth (190°)7.4 km/hMostly Cloudy
7:54 AM26.7 °C24.4 °C87 %1011.9 hPa16.1 kmSE (130°)5.6 km/hScattered Clouds
8:54 AM27.2 °C23.9 °C82 %1011.9 hPa16.1 kmCalm0 mmScattered Clouds
9:13 AM27 °C24 °C84 %1012.9 hPa11.3 kmEast (90°)14.8 km/h0 mmRainRain
9:31 AM27 °C24 °C84 %1012.9 hPa16.1 kmESE (110°)7.4 km/h0.25 mmMostly Cloudy
9:38 AM27 °C24 °C84 %1012.9 hPa16.1 kmESE (110°)7.4 km/h0.25 mmMostly Cloudy
9:54 AM27.8 °C24.4 °C82 %1011.9 hPa16.1 kmESE (110°)11.1 km/h0.51 mmRainLight Rain
10:54 AM28.9 °C23.9 °C74 %1011.9 hPa16.1 kmEast (90°)18.5 km/hClear
11:54 AM28.9 °C23.9 °C74 %1010.2 hPa16.1 kmEast (80°)20.4 km/hPartly Cloudy
12:54 PM30 °C23.9 °C70 %1009.5 hPa16.1 kmENE (60°)13 km/hClear
1:54 PM30.6 °C22.8 °C63 %1008.1 hPa16.1 kmNNE (20°)11.1 km/hClear
2:54 PM31.7 °C24.4 °C65 %1007.8 hPa16.1 kmNorth (360°)7.4 km/hPartly Cloudy
3:54 PM32.2 °C23.9 °C61 %1007.8 hPa16.1 kmVariable5.6 km/hScattered Clouds
4:54 PM31.1 °C23.3 °C63 %1008.5 hPa16.1 kmNE (50°)18.5 km/hPartly Cloudy
5:54 PM30 °C23.3 °C67 %1009.5 hPa16.1 kmEast (80°)16.7 km/hPartly Cloudy
6:54 PM28.9 °C23.9 °C74 %1010.2 hPa16.1 kmEast (80°)14.8 km/hPartly Cloudy
7:54 PM28.9 °C24.4 °C76 %1010.5 hPa16.1 kmEast (90°)11.1 km/hPartly Cloudy
8:54 PM28.9 °C24.4 °C76 %1011.2 hPa16.1 kmEast (80°)9.3 km/hPartly Cloudy
9:54 PM28.9 °C24.4 °C76 %1011.9 hPa16.1 kmEast (80°)7.4 km/hPartly Cloudy
10:54 PM28.9 °C24.4 °C76 %1012.2 hPa16.1 kmEast (90°)11.1 km/hScattered Clouds
11:54 PM29.4 °C23.9 °C72 %1012.2 hPa16.1 kmEast (90°)16.7 km/hPartly Cloudy
Hourly data recorded from PGUM, located 0 kilometers away from Potts Junction, Guam







STORIES FROM OUR PARTNERS